Change the Weather History Date:

Monday, September 22, 2014

  Actual Average Record
Temperature  
Mean Temperature 76 °F 77 °F  
Max Temperature 89 °F 87 °F 98 °F (1921)
Min Temperature 63 °F 67 °F 46 °F (1983)
Degree Days  
Heating Degree Days 0 0  
Month to date heating degree days 0 0  
Since 1 July heating degree days 0 0  
Cooling Degree Days 11 12  
Month to date cooling degree days 357 324  
Year to date cooling degree days 2385 2485  
Growing Degree Days 27 (Base 50)    
Moisture  
Dew Point 65 °F    
Average Humidity 72    
Maximum Humidity 97    
Minimum Humidity 46    
Precipitation  
Precipitation 0.00 in 0.14 in 2.00 in (1920)
Month to date precipitation 3.00 3.40  
Year to date precipitation 50.12 45.11  
Snow  
Snow 0.00 in - - ()
Month to date snowfall 0.0  
Since 1 July snowfall 0.0  
Since 1 September snowfall 0.0  
Snow Depth 0.00 in    
Sea Level Pressure  
Sea Level Pressure 30.03 in    
Wind  
Wind Speed 4 mph (NNE)    
Max Wind Speed 14 mph    
Max Gust Speed 18 mph    
Visibility 10 miles    
Events      
T = Trace of Precipitation, MM = Missing Value Source: NWS Daily Summary

Daily Weather History Graph

Daily Weather History Graph

Search for Another Location

Airport or City:

Trip Planner

Search our weather history database for the weather conditions in past years. The results will help you decide how hot, cold, wet, or windy it might be!

Date:

Astronomy

Sep. 22, 2014 Rise Set
Actual Time 6:52 AM CDT 7:01 PM CDT
Civil Twilight 6:28 AM CDT 7:25 PM CDT
Nautical Twilight 6:00 AM CDT 7:53 PM CDT
Astronomical Twilight 5:32 AM CDT 8:21 PM CDT
Moon 5:26 AM CDT (9/22) 6:06 PM CDT (9/22)
Length of Visible Light 12h 56m
Length of Day
12h 08m
Waning Crescent, 2% of the Moon is Illuminated
Sep 22
Waning Crescent
Sep 24
New
Oct 1
First Quarter
Oct 8
Full
Oct 15
Last Quarter

Hourly Weather History & Observations

Time (CDT) Temp. Heat Index Dew Point Humidity Pressure Visibility Wind Dir Wind Speed Gust Speed Precip Events Conditions
12:53 AM 70.0 °F - 68.0 °F 93% 30.02 in 10.0 mi Calm Calm - N/A   Clear
1:53 AM 70.0 °F - 66.9 °F 90% 30.01 in 10.0 mi Calm Calm - N/A   Clear
2:53 AM 69.8 °F - 66.2 °F 88% 30.02 in 10.0 mi Calm Calm - N/A   Clear
3:53 AM 68.0 °F - 66.9 °F 96% 30.01 in 10.0 mi Calm Calm - N/A   Clear
4:53 AM 69.1 °F - 66.9 °F 93% 30.02 in 10.0 mi Calm Calm - N/A   Clear
5:53 AM 69.1 °F - 66.9 °F 93% 30.02 in 10.0 mi Calm Calm - N/A   Clear
6:53 AM 68.0 °F - 66.0 °F 93% 30.04 in 10.0 mi Calm Calm - N/A   Scattered Clouds
7:53 AM 72.0 °F - 68.0 °F 87% 30.05 in 10.0 mi Calm Calm - N/A   Clear
8:53 AM 77.0 °F - 69.1 °F 76% 30.06 in 10.0 mi Variable 4.6 mph - N/A   Clear
9:53 AM 81.0 °F 84.9 °F 71.1 °F 72% 30.06 in 10.0 mi NNE 5.8 mph - N/A   Clear
10:53 AM 84.0 °F 89.6 °F 72.0 °F 67% 30.06 in 10.0 mi ENE 8.1 mph - N/A   Clear
11:53 AM 86.0 °F 92.2 °F 72.0 °F 63% 30.05 in 10.0 mi North 8.1 mph - N/A   Clear
12:53 PM 87.1 °F 92.8 °F 71.1 °F 59% 30.04 in 10.0 mi NE 12.7 mph 16.1 mph N/A   Partly Cloudy
1:53 PM 87.1 °F 91.3 °F 69.1 °F 55% 30.03 in 10.0 mi North 6.9 mph - N/A   Partly Cloudy
2:53 PM 88.0 °F 91.4 °F 68.0 °F 51% 30.00 in 10.0 mi NNE 9.2 mph - N/A   Clear
3:53 PM 88.0 °F 90.7 °F 66.9 °F 49% 29.99 in 10.0 mi North 9.2 mph - N/A   Clear
4:53 PM 87.1 °F 88.9 °F 64.9 °F 48% 29.99 in 10.0 mi NNE 11.5 mph - N/A   Clear
5:53 PM 84.0 °F 84.9 °F 63.0 °F 49% 30.00 in 10.0 mi North 8.1 mph - N/A   Clear
6:53 PM 79.0 °F - 60.1 °F 52% 30.01 in 10.0 mi Calm Calm - N/A   Clear
7:53 PM 73.9 °F - 57.9 °F 57% 30.04 in 10.0 mi North 3.5 mph - N/A   Clear
8:53 PM 72.0 °F - 55.9 °F 57% 30.06 in 10.0 mi Variable 4.6 mph - N/A   Clear
9:53 PM 69.1 °F - 57.0 °F 65% 30.07 in 10.0 mi Variable 3.5 mph - N/A   Clear
10:53 PM 66.9 °F - 57.0 °F 70% 30.09 in 10.0 mi Variable 3.5 mph - N/A   Clear
11:53 PM 64.9 °F - 57.0 °F 75% 30.08 in 10.0 mi Calm Calm - N/A   Clear